This demonstration page uses our WeatherBlox Daily Observations layout. Learn more.

Left ArrowRight Arrow

Hourly Observations for November 15, 2018

Temp ( °F °C ) Dew Point ( °F °C ) Humidity (%) Winds ( mph kmh ) Pressure ( in mb ) Visibility ( mi km ) Precip ( " mm )
12:52 am 00:52 Clear 30 -1.1 18 -7.8 61 61 SSE 13 20 30.19 1022 10 16 0.00 0.00
1:52 am 01:52 Clear 29 -1.7 19 -7.2 66 66 SSE 14 22 30.17 1022 10 16 0.00 0.00
2:52 am 02:52 Clear 29 -1.7 19 -7.2 66 66 SSE 16 26 30.13 1020 10 16 0.00 0.00
3:52 am 03:52 Clear 29 -1.7 19 -7.2 66 66 SSE 15 24 30.11 1020 10 16 0.00 0.00
4:52 am 04:52 Clear 28 -2.2 19 -7.2 69 69 SSE 14 22 30.09 1019 10 16 0.00 0.00
5:52 am 05:52 Clear 28 -2.2 19 -7.2 69 69 S 13 20 30.05 1018 10 16 0.00 0.00
6:52 am 06:52 Clear 28 -2.2 19 -7.2 69 69 S 10 17 30.06 1018 10 16 0.00 0.00
7:52 am 07:52 Sunny 27 -2.8 20 -6.7 75 75 SSE 9 15 30.04 1017 10 16 0.00 0.00
8:52 am 08:52 Sunny 32 0 21 -6.1 64 64 S 10 17 30.03 1017 10 16 0.00 0.00
9:52 am 09:52 Mostly Sunny 36 2.2 22 -5.6 57 57 SSW 7 11 30.01 1016 10 16 0.00 0.00
10:52 am 10:52 Mostly Sunny 38 3.3 24 -4.4 57 57 SW 7 11 30.00 1016 10 16 0.00 0.00
11:52 am 11:52 Sunny 42 5.6 25 -3.9 51 51 SW 6 9 29.98 1015 10 16 0.00 0.00
12:52 pm 12:52 Mostly Sunny 47 8.3 27 -2.8 46 46 WNW 3 6 29.96 1015 10 16 0.00 0.00
1:52 pm 13:52 Mostly Sunny 50 10 28 -2.2 43 43 WSW 6 9 29.94 1014 10 16 0.00 0.00
2:52 pm 14:52 Sunny 51 10.6 29 -1.7 43 43 SW 8 13 29.92 1013 10 16 0.00 0.00
3:52 pm 15:52 Sunny 53 11.7 30 -1.1 41 41 S 5 7 29.92 1013 10 16 0.00 0.00
4:52 pm 16:52 Sunny 46 7.8 30 -1.1 54 54 S 6 9 29.93 1014 10 16 0.00 0.00
5:52 pm 17:52 Clear 43 6.1 29 -1.7 58 58 Calm 29.96 1015 10 16 0.00 0.00
6:52 pm 18:52 Clear 49 9.4 31 -0.6 50 50 NW 13 20 29.97 1015 10 16 0.00 0.00
7:52 pm 19:52 Clear 50 10 32 0 50 50 NW 16 26 29.98 1015 10 16 0.00 0.00
8:52 pm 20:52 Clear 48 8.9 32 0 54 54 NW 17 28 30.01 1016 10 16 0.00 0.00
9:52 pm 21:52 Clear 45 7.2 32 0 61 61 NW 17 28 30.04 1017 10 16 0.00 0.00
10:52 pm 22:52 Clear 42 5.6 32 0 68 68 NW 15 24 30.06 1018 10 16 0.00 0.00
11:52 pm 23:52 Clear 41 5 32 0 70 70 W 8 13 30.05 1018 10 16 0.00 0.00

Powered by AerisWeather